timestamp,gas_concentrations,,corrected_fluxes_and_quality_flags,,,,,,,,,,storage_terms,,,turbulence,,,footprint,,
ISOdate,CO2_1_1_1,H2O_1_1_1,Tau_1_1_1,QcTau_1_1_1,H_1_1_1,QcH_1_1_1,LE_1_1_1, QcLE_1_1_1,Fc_1_1_1, QcFc_1_1_1,E_1_1_1, QcE_1_1_1,Sa_1_1_1,Sw_1_1_1,Sc_1_1_1,ustar_1_1_1,MO_length_1_1_1,ZL_1_1_1,Fetchmax_1_1_1,Fetch70_1_1_1,Fetch90_1_1_1
yyyymmddHHMM,[µmol+1mol_a-1],[mmol+1mol_a-1],[kg+1m-1s-2],[#],[W+1m-2],[#],[W+1m-2],[#],[µmol+1s-1m-2],[#],[mmol+1s-1m-2],[#],[W+1m-2],[W+1m-2],[µmol+1s-1m-2],[m+1s-1],[m],[#],[m],[m],[m]
201809020030,413.03843579634668,23.754347614209433,8.46057183052912609E-002,1,-18.758700622004874,1,7.9561096778773397,1,3.4874521261527787,1,0.18040153816105350,1,-9999.,-9999.,-9999.,0.27654946107675854,94.803840514288467,0.22783887111350234,142.53534776107233,260.60007502481187,390.42639993830613
201809020100,414.22996892340103,23.808547095468395,5.95924048746762636E-002,1,-8.8837493801498599,1,5.8069620659557346,1,3.8035592833759226,1,0.13162133713285262,1,-8.4635644095939764,1.7944742637654925,0.89418120011180702,0.23193350289441331,118.09796113673760,0.18289900851879087,136.41661045665475,249.41307176116379,373.66623051046400
201809020130,416.00365813939328,23.748148303242228,1.43514645192787844E-002,1,-2.9702648079813052,0,4.0677009646237510,0,1.5578804586725201,0,9.21818623866865333E-002,0,-4.2250542139267377,-2.0021376257015726,1.3324154448319940,0.11376005102704519,41.689826318956172,0.51811201694017561,137.69812084599948,1254.0000000000000,6135.0000000000000
201809020200,420.77380536953774,23.760521594199290,5.69774583195868309E-003,1,-4.2063532491205740,1,1.6221946555620277,1,1.4971719647369623,1,3.67553135599838418E-002,1,-4.1478545404592637,0.41056435942220348,3.5862864075818446,7.16504136009866177E-002,7.3562757038628348,2.9362684148254097,161.74065874596985,1194.0000000000000,4960.0000000000000
201809020230,473.39536141395661,23.635916365417852,0.76927704943678354,1,247.86688134466402,1,-550.55715428326914,2,53.585483253256754,1,-12.471396517609884,2,-5.4719302092195594,-4.1394545569840586,39.598908528587330,0.83213743212781988,-195.56489913021963,-0.11044926822792131,201.20075683086986,367.85915317697442,551.12004417330149
201809020300,458.36675130914512,22.077735866269876,0.89373188929855307,1,-147.37368565685532,1,155.36840562340518,1,-83.521163249066120,1,3.5163840368234487,1,-19.920798073508340,-51.974413430134739,-11.345515674237369,0.89523137325706437,409.46603309162839,5.27516283509808365E-002,182.58663186419935,333.82659606723291,500.13307207904518
201809020330,403.77980866449633,20.046586767757407,4.69563550547238973E-002,1,9.4158317850611990,1,-196.75783123074396,1,24.475753394771033,1,-4.4531611974692655,1,0.14709572968910867,-67.761186415127099,-41.215859120860365,0.20510472124888440,-77.054711589960846,-0.28032030169605071,177.18666631011476,323.95373680368556,485.34172983174409
201809020400,406.05158231112210,21.873745403689259,5.86109747071786938E-002,0,-23.744430695903759,1,40.777509859238243,1,7.5448041658080527,1,0.92258624344011531,1,-7.9028526570939128,61.043607907872470,1.7171778178561792,0.22910356834111800,42.595619858127634,0.50709439308414062,101.90657354642667,186.31771787751035,279.13789291392720
201809020430,406.72021870139667,22.372623153539770,7.40979103479625367E-002,1,-22.415108792474822,0,9.2624663033031922,1,7.9954402344820519,1,0.20952081603485057,1,-4.5172825744297169,16.677800107003161,0.50563272565465578,0.25756639154822714,64.108927134041593,0.33692655556125328,109.75280206642572,200.66312603830627,300.62992841442315
201809020500,409.63401054053355,22.186528465327452,5.26179509449187163E-002,0,-16.016525872225468,0,-23.493535099561861,0,5.0039355641260936,1,-0.53141242561773339,0,-0.90682333445369878,-6.2246009568113054,2.2045471673946206,0.21698510152346887,53.654839613563013,0.40257319107780720,97.953301741835119,179.08987618734267,268.30926897685623
201809020530,411.36404477127616,21.961983331026889,0.14993985149207939,0,-21.649848252179744,0,-47.900322839706405,1,19.331832077029581,0,-1.0832163971868605,1,-5.6242835757189038,-7.5214560195040141,1.3104780556011975,0.36605454489551081,190.61128046427783,0.11331963117496618,101.78739353507123,186.09981880623755,278.81144039875107
201809020600,411.87058331733044,21.932300229994613,0.12613962770614701,0,-17.703484768105131,0,-18.426830959996749,0,14.232393883012069,0,-0.41667265679401283,0,-1.7124442956818404,-0.99439549301190322,0.38371318841850666,0.33573838332435657,179.82044098220450,0.12011982554384679,93.361941501318782,170.69540532843567,255.73282195734546
201809020630,410.18770073455431,21.983636487667411,0.16340723416711550,0,-22.884329990491786,0,-22.528414864311017,0,19.250516941973537,0,-0.50942423103187240,0,0.24357668804390445,1.7197236238012046,-1.2747858380652812,0.38213825730907564,205.12861807814937,0.10529978801773475,98.932615046270541,180.88037324380943,270.99175983872533
201809020700,404.72307190835579,22.344260043736380,0.24609510464962031,0,-13.666368449339002,0,31.781073169663774,1,10.783086552893025,0,0.71881073670806528,1,5.1192125578394538,12.069333380761156,-4.1365269482436560,0.46915931132429328,635.72010924215408,3.39772168380035947E-002,103.86471922529262,189.89783269701019,284.50155729587345
201809020730,403.42493507823144,22.452132495449312,0.26930224667475366,0,-11.983854187242873,0,19.130533080921897,0,10.072964230151236,0,0.43271311469663565,0,1.4232452629139107,3.6089638197431881,-0.98234816107000134,0.49086592619107566,830.29861222534589,2.60147369656661409E-002,106.60834077296522,194.91404791936813,292.01676177305740
201809020800,404.04540030751389,22.461077337159004,0.26687409940862605,0,-13.821219680912758,0,28.093133796946958,0,9.1190689421109727,0,0.63543798677461805,0,0.0000000000000000,0.29932042702458328,0.46962816108447891,0.48859722186581467,710.09262518773266,3.04185668655401718E-002,105.36578725934201,192.64226380434746,288.61321519548983
201809020830,403.50374280792920,22.463918071453186,0.20570311356506041,0,-9.2924757084970366,0,8.7900502312683848,2,5.6038810789583806,0,0.19882195638892944,2,0.0000000000000000,9.50472131246708068E-002,-0.40992699585470194,0.42898875617408733,714.78540585960980,3.02188598465067612E-002,104.76402557132344,191.54205151660275,286.96489670352025
201809020900,408.67310702782692,22.471241473795207,0.15624907448045730,0,-8.6560882039968714,0,-4.3850982239816645,2,4.7099550670829586,0,-9.91864420465146668E-002,2,0.0000000000000000,0.24504368854526787,3.9123774316257953,0.37387281108934323,507.96705734064562,4.25224425242893625E-002,103.20583092170195,188.69317473640012,282.69676015345811
201809020930,409.69711953160601,22.474358129274751,0.23197250576400319,0,-8.6862407941808719,0,11.612926990251681,1,8.4873435008294749,0,0.26267254484966374,1,0.0000000000000000,0.10429087760454289,0.77506079674563577,0.45553339710587748,915.65913964943206,2.35895641343892952E-002,106.43870275738017,194.60389552360854,291.55209696704333
201809021000,410.28133198953714,22.482353691327731,0.16774998827409821,0,-9.3484725323756717,0,-14.541341576960496,2,12.370530602836869,0,-0.32891029115698028,2,0.0000000000000000,0.26756982500505488,0.44221343844542454,0.38736338848466967,523.16970413296076,4.12867943792679520E-002,108.63104870567331,198.61220312996613,297.55727217064418
201809021030,413.52400458419118,22.377634108369783,0.19991212802063357,0,-9.0147438764955776,0,21.716470464206417,0,10.606656429183733,0,0.49117432655827847,0,-1.4017291184952407,-3.5052646806511873,2.4549487537821113,0.42282350045965972,705.55606758744875,3.06141510112133385E-002,93.898035334573393,171.67555583398376,257.20126602146331
201809021100,418.07865409386744,22.268507635238638,0.25620913783030624,0,-5.2977720639916397,1,13.061246616073991,0,8.7990198889371793,0,0.29539277218173410,0,-1.6456406792640637,-3.6541217870227909,3.4492374744246810,0.47858977457488522,1741.0395428372060,1.24063810548498757E-002,107.92927183519593,197.32913119048035,295.63499659897525
201809021130,417.25918795287720,22.177663388234819,0.29431046523541121,0,-6.5715305402645621,0,-23.130537632488565,2,11.797300725483561,0,-0.52308807089909648,2,-1.3805427065494877,-3.0434218332506950,-0.62084734034276745,0.51282430381022637,1727.0697241325095,1.25067330508902719E-002,109.46140771730100,200.13036423264529,299.83175414763116
201809021200,418.57986498074172,22.090073191000769,0.29577656539563035,0,-10.035082599046373,1,36.022602593417702,1,6.1513885133174151,1,0.81458804273247809,1,-1.3810259174666193,-2.9356595898664657,1.0009439479611073,0.51399715234280208,1138.8647634124109,1.89662554272724583E-002,97.754927446096332,178.72718470649554,267.76589104750622
201809021230,415.48105086492797,22.156527450919832,0.20390938676324513,0,-4.7690555687209066,0,-28.555131571745353,2,12.655770170327644,1,-0.64574380965120948,2,0.69410339649803376,2.2268476558173695,-2.3482227578417114,0.42681298897846331,1372.0837021377279,1.57424798256453752E-002,98.955678214067248,180.92254007016192,271.05493342840310
201809021300,411.95219599995693,22.326755502203920,0.17780077991212109,0,-2.4973026625269550,2,34.096691960095853,1,3.9846208491699544,0,0.77114816244262241,1,2.6121568792270060,5.6994736112915394,-2.6721633227638115,0.39871009136260366,2135.5771574147184,1.01143617897414082E-002,106.36622707326839,194.47138685811831,291.35357483989867
201809021330,410.01197038367519,22.536475341026268,0.14515968303612856,0,-3.1147462723272348,0,26.662792035148797,0,3.1491833936678746,0,0.60310822719583712,0,3.3782916563322956,7.0177367980897616,-1.4685861304539902,0.36034771849244773,1264.1738731227813,1.70862572461202324E-002,93.383515234555631,170.73484899338192,255.79191575501179
201809021400,410.30538923766181,22.730721416927132,0.11747585771454666,0,1.1406869701695972,1,28.641214141380722,0,0.55455701207089902,2,0.64795747700384698,0,3.4494585749422795,6.4938363133989032,0.22191782188837636,0.32431025548240439,-2516.0331217283888,-8.58494262792609125E-003,96.255176327775501,175.98516134111884,263.65784038409481
201809021430,410.81648332992643,22.851073608661370,9.14107755087258944E-002,0,-3.0798871658744007,1,20.789648182689668,0,-0.22893367199778075,2,0.47038252402637432,0,2.5781648637526029,4.0205120097470708,0.38630671673156208,0.28617481972997633,640.17576460990472,3.37407337079717526E-002,102.57381310281978,187.53764459173877,280.96556543159409
201809021500,411.47685165800669,22.897414236402639,6.63436133436521858E-002,0,2.0720101817511756,0,24.483931199865214,0,-4.0314913388849520,1,0.55405020599509502,0,3.3624745701165208,1.5460403532872142,0.49855504901915398,0.24394300972118790,-589.14007827146338,-3.66636064946971318E-002,106.61679221980953,194.92949985965024,292.03991159531216
201809021530,410.71869525221524,22.971083786090862,0.19867312534125234,0,4.6638369105866024,0,47.507927343986573,0,-7.3251414648573121,0,1.0752950846420553,0,4.9161409198718884,2.4541512704960455,-0.57165459540753516,0.42241611425557046,-1358.5396462823128,-1.58994255773904671E-002,120.29478240545996,219.93722829024404,329.50604578910304
201809021600,416.69493982665432,22.924568608860447,0.29761796498501192,0,-2.9418759247752582,2,-7.9377902255559052,2,8.5932339963052833,2,-0.17968356486055276,2,2.4755879957409483,-1.5488662570754463,4.5046011014583112,0.51709470538536539,3950.8548991322223,5.46717116964844530E-003,111.66545833799815,204.16007171317122,305.86899026230384
201809021630,422.65809135375866,22.600468655258723,0.36920928844602108,0,-15.066606446083879,0,74.863458361594482,0,4.3414515601246144,0,1.6942656604516362,0,-5.1030155539903834,-10.805416728896049,4.4993525090886148,0.57560808661974361,1064.1855236094757,2.02972127705117675E-002,105.63718813287740,193.13847116003916,289.35662423513486
201809021700,428.48052088210056,22.538594187023605,0.41198137837948412,0,-8.3240376597737669,1,4.9441685854032755,2,17.961615630765625,1,0.11187552324969466,2,-3.6694195497646618,-2.0633810604237945,4.3935341845483515,0.60800401793574943,2269.2421414337850,9.51859636554800576E-003,98.872481959981997,180.77043078360975,270.82704599920692
201809021730,435.91426303118840,22.400390311281956,0.72359968416633347,0,3.9175031226311732,0,-623.86974005476861,2,47.783819274788932,2,-14.117069200872422,2,0.46323624498878097,-4.6084539304981682,5.6090994873672235,0.80578180162529223,-11223.616058569492,-1.92451344444448435E-003,110.19241495377216,201.46687860371480,301.83409622029865
201809021800,473.79023389212199,21.057608896399103,0.65640502815575552,0,-42.212047974229954,0,16.290513363429113,2,-8.9405437367665428,2,0.36837335339319044,2,-15.668354031479389,-44.941821535218232,28.665700567393500,0.76610180054058297,895.34393330145417,2.41248074584624189E-002,100.73534462940017,184.17633787288185,275.92971545646725
201809021830,429.88859806095121,20.835148027384815,1.5681200760150769,0,-19.151279494864045,2,80.588833778529533,2,18.488446716351824,2,1.8218321963673136,2,-6.3322278214435608,-7.4549256505203987,-33.258594482559324,1.1834763334921623,7274.9156863162752,2.96910657543817845E-003,120.22526664026861,219.81013130055808,329.31563133844963
201809021900,419.54608153270453,20.832526337837429,0.65610990997940200,0,16.900569311213484,1,-12.875923048814176,2,15.974941245602178,0,-0.29106093637905500,2,-1.4750113881700038,-8.78002738552449979E-002,-7.8297227003325718,0.76578969434351729,-2231.9595065678632,-9.67759492788237453E-003,109.01174786952471,199.30824261925733,298.60006616060366
201809021930,442.77192796460474,20.978165593557637,0.46520325767971343,0,-21.921676139658395,0,75.520720924401772,0,12.605787846953458,1,1.7077083128815116,0,7.4841496566664834,4.8699043600773066,17.561479333390849,0.64523802255285601,1029.2941022947387,2.09852557707698173E-002,101.95634209764729,186.40871066200697,279.27421668615943
201809022000,416.69711062167312,21.345798645952382,0.42434831712301496,0,9.8990236801169136,0,186.28259227503156,0,-14.235850224816630,0,4.2143035660217061,0,10.838290104618912,12.272334906987156,-19.691892940088248,0.61666873111606357,-1990.6537749727174,-1.08507065726665790E-002,102.18065400469088,186.81882436869608,279.88864175128168
201809022030,405.34450954611015,21.647590554726900,0.58662110373422116,0,2.4128513661999076,0,140.19900040943386,0,-8.5458949483023883,0,3.1734747118197868,0,12.423223581330239,10.052827914972680,-8.5598500808635620,0.72567508918556978,-13312.382935650257,-1.62254947926382853E-003,105.86182185488595,193.54917324712187,289.97193080130370
201809022100,404.69759756081334,21.661362285613485,0.62706966170474976,0,-5.9886479336379077,2,142.10037045186471,0,-9.2413909131266241,0,3.2179306575122260,0,10.031943876889432,0.45803528001242022,-0.48723342247123763,0.75069212844917999,5939.6415696581535,3.63658307436271009E-003,107.59222394760032,196.71290015604524,294.71177021739476
201809022130,404.08485374060200,21.754627850683999,0.48336311666909926,0,7.7584806716743273,1,149.45688988131980,0,-10.701482962302093,0,3.3861512387463768,0,10.934050585587020,3.0960436808764609,-0.46084523812152872,0.65956301962223718,-3110.2219984379540,-6.94484188294217097E-003,103.59344033507742,189.40184836573238,283.75848238744078
201809022200,404.53684385171050,21.796267716643573,0.56290874173330052,0,-10.710244476694019,0,116.18488108090121,0,-5.6976032234383371,0,2.6322067509812994,0,-1.0480446962705152,1.3824320038197822,0.33996465757756505,0.71175028717956579,2831.1043457941782,7.62953157558055126E-003,109.90926249903983,200.94918560962049,301.05849777913056
201809022230,404.59770457580436,21.803620001024292,0.37997449066018807,0,-18.270653180497256,0,103.95789399432903,0,-5.4960564665731120,0,2.3548585645002218,0,-3.2997684661427718,0.24425734048505401,4.58004555281926531E-002,0.58461850960568407,919.68684383368793,2.34862552887687599E-002,106.65498344172596,194.99932559377896,292.14452326895173
201809022300,405.30481400353335,20.903998447606313,0.43741592879365104,0,-21.338988252328111,0,119.59780405060836,0,-5.0798845523048328,0,2.7094463777518802,0,2.6165675263566253,-29.874241814848741,0.53196250520197508,0.62724515067518083,972.46086058715809,2.22116908509389539E-002,100.82136156026856,184.33360425620228,276.16532915636839
201809022330,404.94723133990152,20.590497085193501,0.49290923345744364,0,-15.096246010633219,0,99.209663096695877,0,-7.1895777256222377,0,2.2473108605072110,0,-2.5227822700069806,-10.418554598059092,-0.26918674457123754,0.66558900170005442,1642.6287185858116,1.31496544262273037E-002,112.56285426327815,205.80079767433384,308.32709673154045
201809030000,404.70537941596490,20.580359544492296,0.42898988200242111,0,-31.407842778996603,0,98.016026787984856,0,-2.1362661177191811,0,2.2200175900180468,0,-2.6119685365413212,-0.33709236435857426,-0.18214832110624435,0.62079204111616748,640.62682942469178,3.37169768855882235E-002,110.27272012286940,201.61370206484463,302.05406451980872
